Wind_Speed
21 19 19 19 19 20 21 21 22 21 19 18 16 15 13 13 11 12 16 21 21 23 31 37 39 41 41 39 40 42 46 50 45 43 41 37 36 35 42 41 49 48 45 45 48
24 24 23 23 23 24 25 25 26 28 26 23 24 23 19 16 14 14 18 20 21 24 26 32 39 43 45 44 44 44 44 42 38 40 40 41 42 34 25 38 36 40 37 50 55
27 28 29 29 27 26 27 28 30 29 29 31 30 28 28 24 18 16 22 22 24 23 28 31 34 40 46 47 48 46 37 38 39 40 38 38 42 46 37 37 41 45 46 45 46
28 29 30 29 29 30 30 31 33 32 34 34 32 32 32 30 24 24 25 24 27 27 30 32 33 36 41 46 46 49 44 43 41 43 43 42 43 49 50 49 52 52 54 43 47
29 31 31 31 31 32 34 37 36 34 33 34 35 36 35 32 23 35 21 31 31 31 30 33 36 36 38 42 43 47 48 48 47 45 44 44 48 48 48 53 55 52 37 40 42
37 37 36 37 39 40 41 42 42 41 41 42 41 38 35 31 33 36 32 31 33 34 36 36 32 33 37 42 44 43 46 47 51 49 47 49 49 48 43 44 48 45 40 44 42
33 35 37 40 44 42 41 42 43 43 42 42 42 43 41 27 40 38 31 35 34 38 37 36 35 39 37 39 41 42 46 48 50 51 51 49 54 47 44 43 46 46 43 46 43
45 42 43 47 47 45 45 45 46 44 45 46 45 47 45 35 45 41 39 38 42 41 39 38 38 39 42 41 40 44 47 49 47 51 50 53 49 48 46 47 47 47 45 45 44
46 48 48 47 47 48 49 51 53 52 52 52 52 51 47 41 44 47 44 41 43 42 39 41 43 42 43 43 41 42 45 44 44 43 46 46 45 44 45 48 48 49 49 48 46
48 48 49 52 55 57 56 56 59 59 59 57 55 53 48 47 45 47 48 47 47 46 43 44 46 45 43 44 44 42 38 37 37 34 38 38 42 43 43 45 48 49 49 48 47
52 54 57 60 62 64 63 61 63 64 65 63 62 56 48 48 46 49 50 51 52 52 50 46 47 46 42 40 36 35 35 34 31 26 31 37 40 40 43 43 45 45 47 46 45
58 60 63 65 66 69 70 69 73 70 70 66 61 57 46 48 51 52 55 55 54 53 48 49 51 42 37 39 37 34 34 35 27 15 21 26 34 30 33 36 39 42 46 47 44
67 69 71 73 73 76 66 70 66 62 66 62 55 50 46 53 54 60 55 55 55 51 48 46 39 37 36 38 40 39 38 33 32 16 16 27 28 33 25 20 26 32 39 42 39
74 78 80 81 80 69 69 64 59 60 64 55 48 46 47 52 52 44 51 53 55 52 44 39 37 39 37 38 40 40 36 29 29 27 24 32 38 32 11 11 20 26 28 29 31
80 84 86 87 84 65 64 59 59 58 57 41 33 37 36 37 35 33 22 37 47 48 45 45 38 40 37 37 38 37 31 32 35 27 31 40 38 24 21 15 21 26 26 27 30
86 89 86 81 65 66 59 56 55 53 52 33 21 19 17 23 23 17 16 27 27 30 38 36 35 37 33 36 35 30 29 33 38 30 36 36 35 25 18 15 13 18 19 23 29
90 90 76 74 65 60 53 46 46 48 39 25 19 27 27 28 15 23 24 32 34 33 34 38 40 35 34 35 30 32 34 30 34 45 46 41 39 35 19 13 20 29 25 19 23
92 86 73 66 57 53 47 41 42 34 31 28 24 37 37 26 24 32 30 36 45 22 28 34 40 38 37 39 35 38 39 42 41 36 31 31 34 22 28 24 23 21 13 20 19
89 68 63 58 55 45 36 29 31 24 25 22 25 41 43 28 27 27 34 46 34 29 29 34 35 34 38 40 37 37 44 38 30 21 20 19 13 17 18 22 24 27 20 21 24
77 62 60 56 46 38 19 18 24 21 17 12 18 24 46 37 22 23 19 37 38 47 30 35 31 35 34 40 40 42 33 40 38 35 31 26 20 29 27 34 31 26 24 26 25
66 62 61 52 26 21 16 21 14 14 26 23 21 16 32 45 28 29 18 20 35 33 39 36 39 39 44 43 39 42 39 35 34 39 32 21 34 30 36 36 34 32 31 28 34
64 63 58 42 13 29 19 23 26 10 14 16 16 17 20 36 47 38 22 24 19 40 41 32 45 40 38 46 45 44 36 36 36 40 32 26 31 36 39 37 41 35 28 33 44
60 58 46 28 14 13 25 19 17 13 3 6 16 13 24 13 29 31 31 23 16 36 39 42 45 41 44 40 42 46 46 40 36 37 39 33 33 30 34 39 32 28 26 31 34
62 54 37 24 22 27 11 7 12 19 23 9 8 11 21 21 29 22 24 14 18 23 41 42 46 42 34 41 48 38 38 43 38 38 37 38 31 36 33 29 34 33 34 42 35
56 45 34 16 20 23 10 14 14 17 15 14 10 11 16 17 27 23 24 19 14 20 41 44 38 38 34 36 38 35 34 45 39 34 29 37 35 38 37 40 26 25 30 32 36
47 36 19 17 10 10 13 16 17 14 10 7 10 6 7 14 22 24 26 23 14 22 30 44 34 30 29 40 36 31 35 37 35 36 32 33 32 33 34 37 42 44 41 42 47
40 30 21 15 7 3 7 7 5 6 10 0 6 7 9 17 21 16 17 18 21 31 39 37 33 31 34 41 36 32 42 40 35 38 34 31 37 40 36 34 32 28 25 29 27
Wind_Direction
328 327 325 324 324 326 326 324 324 322 320 318 312 305 306 311 293 268 282 282 286 261 253 250 246 243 240 242 241 241 240 241 243 243 240 231 236 241 223 225 237 236 235 241 252
324 320 318 317 318 318 318 317 315 314 311 309 308 306 296 297 286 271 271 271 266 262 256 250 248 243 240 237 239 241 243 243 244 242 238 233 230 228 230 242 238 249 240 243 244
330 323 314 310 309 310 313 312 310 306 303 302 303 301 299 296 270 261 275 262 265 268 264 254 251 247 244 242 238 239 242 241 239 239 237 233 227 223 213 227 234 240 245 251 252
335 333 327 321 316 311 308 306 305 302 300 298 298 300 299 300 280 258 272 258 258 257 260 262 257 253 246 244 242 241 239 239 236 238 235 228 227 223 219 219 237 235 244 240 254
327 328 328 326 319 313 312 310 308 307 303 298 296 295 294 296 265 292 267 256 256 255 255 260 255 250 248 244 242 240 239 239 239 237 238 239 238 233 232 234 241 254 256 252 248
318 314 316 320 319 316 312 309 304 301 297 295 292 293 292 288 271 276 278 251 262 255 255 255 258 251 245 242 241 240 238 238 240 238 239 239 240 242 240 240 246 249 246 250 249
318 313 311 315 317 313 306 303 301 298 294 292 290 292 294 273 274 273 257 251 257 258 253 256 252 246 244 241 241 238 240 237 237 239 236 242 241 240 240 242 244 247 243 250 252
313 314 314 312 310 309 303 298 296 292 288 288 287 293 298 264 271 268 255 244 251 250 250 250 252 245 239 237 235 238 235 238 237 239 239 237 241 244 247 242 241 245 247 245 251
312 312 311 312 310 310 310 304 300 299 296 293 289 290 293 272 264 261 262 251 250 247 243 244 245 245 241 237 235 237 241 238 238 244 245 244 243 244 247 247 244 245 245 246 245
311 312 314 316 312 310 310 305 298 299 295 292 291 291 283 279 267 256 255 250 247 246 240 239 241 241 241 238 237 236 243 244 243 241 250 248 241 241 241 244 244 245 245 246 247
318 319 317 317 313 310 310 305 298 296 297 295 292 291 284 275 269 259 254 247 245 245 241 238 241 243 244 242 239 239 236 240 242 239 239 241 241 243 239 243 245 247 249 248 245
320 318 316 315 312 309 307 303 301 298 293 291 292 293 284 265 259 254 245 245 245 245 243 237 238 241 238 237 233 232 232 233 217 170 240 252 248 253 255 242 245 245 247 249 248
324 322 318 318 313 311 310 304 304 295 295 295 296 287 266 257 257 254 249 245 243 244 242 242 243 244 238 233 228 225 225 222 224 193 220 239 235 246 255 247 243 238 242 248 248
323 320 317 314 312 313 306 305 293 287 289 300 283 273 268 261 260 266 255 251 249 245 244 238 233 233 232 227 226 225 220 214 191 196 204 225 230 240 214 228 243 252 248 253 253
320 317 314 312 311 308 305 295 290 287 288 298 286 279 274 268 263 269 258 245 243 247 238 241 233 232 227 226 224 223 214 197 188 205 206 205 231 236 202 225 237 242 248 251 254
319 317 317 314 315 307 303 301 297 293 295 290 254 262 270 267 259 239 242 242 239 235 232 227 225 220 222 218 218 220 203 195 195 206 213 207 221 203 199 218 233 250 259 253 252
318 319 318 315 316 310 307 299 293 289 292 287 227 209 208 244 232 239 209 234 235 224 230 214 214 210 210 217 203 205 181 201 213 212 220 217 228 240 216 237 236 225 240 254 246
321 321 316 317 316 312 310 303 299 303 290 280 227 205 208 227 265 262 225 211 226 213 225 223 212 205 206 211 205 192 192 202 205 210 222 226 228 242 215 220 258 241 232 249 255
323 320 318 318 319 314 306 297 289 294 283 264 243 213 211 213 255 256 257 208 226 212 222 215 215 204 197 194 185 196 205 201 207 208 222 213 206 191 194 236 245 258 206 233 264
324 325 323 325 326 312 299 292 288 290 300 287 305 242 214 207 251 245 260 197 213 215 211 204 205 194 196 190 195 205 206 202 202 207 209 206 201 216 215 225 228 198 221 237 264
327 327 325 328 320 245 306 292 297 293 296 299 273 261 219 216 226 220 229 220 232 204 199 189 199 194 190 187 201 193 192 203 205 212 221 201 208 207 211 217 230 214 214 235 257
330 330 330 330 278 247 248 253 278 304 290 292 264 253 267 223 222 233 255 220 215 216 211 202 198 202 196 196 193 188 199 187 202 206 220 210 216 228 214 230 217 218 218 242 243
332 334 332 330 238 250 240 252 272 254 310 350 278 258 217 224 226 226 239 235 224 215 200 190 199 199 201 200 196 202 201 208 207 204 208 219 226 236 232 234 220 216 242 238 170
336 335 336 304 258 257 268 232 249 252 251 319 279 256 231 230 231 215 198 218 233 239 192 186 195 204 207 205 201 204 201 201 212 210 205 218 227 236 238 243 243 240 229 239 254
339 341 340 326 260 273 290 275 247 256 252 274 284 283 257 249 238 221 210 218 212 207 188 189 191 197 189 193 197 193 200 200 208 213 223 208 221 234 244 241 244 243 250 272 274
340 344 351 332 322 271 279 279 259 257 251 275 267 248 203 239 223 192 203 175 204 200 186 193 187 194 188 190 196 190 178 179 211 221 222 230 233 242 248 241 240 242 254 263 269
340 345 349 348 313 310 327 262 266 233 232 318 300 292 206 200 187 213 223 190 190 198 191 197 199 197 196 195 190 196 186 191 207 216 222 231 243 240 248 236 243 243 265 267 272
Height
5834 5831 5829 5826 5824 5821 5819 5817 5814 5813 5811 5809 5808 5806 5805 5803 5803 5803 5803 5801 5801 5802 5801 5802 5804 5805 5806 5809 5809 5810 5812 5818 5825 5831 5839 5844 5845 5852 5849 5851 5859 5861 5866 5865 5863
5832 5829 5826 5823 5821 5818 5816 5813 5811 5808 5806 5805 5803 5801 5800 5799 5798 5798 5797 5795 5794 5794 5795 5795 5795 5796 5798 5800 5801 5802 5806 5815 5822 5823 5827 5834 5837 5840 5843 5845 5847 5851 5861 5856 5855
5828 5825 5822 5819 5816 5813 5810 5808 5806 5803 5801 5799 5796 5795 5793 5793 5793 5791 5787 5788 5788 5788 5787 5786 5786 5787 5789 5791 5793 5796 5803 5807 5810 5814 5818 5824 5828 5830 5834 5836 5838 5845 5852 5849 5851
5825 5822 5818 5815 5812 5809 5806 5802 5799 5798 5795 5792 5790 5788 5786 5785 5785 5784 5779 5778 5778 5778 5778 5778 5778 5778 5780 5782 5785 5788 5794 5796 5801 5804 5807 5811 5815 5820 5823 5827 5825 5829 5837 5845 5842
5819 5815 5812 5808 5805 5802 5798 5795 5792 5790 5786 5783 5781 5778 5777 5778 5775 5772 5775 5770 5770 5769 5769 5768 5768 5768 5771 5774 5776 5781 5785 5787 5791 5795 5800 5803 5806 5811 5819 5820 5821 5824 5834 5838 5840
5813 5809 5805 5801 5797 5793 5790 5786 5782 5779 5777 5773 5770 5769 5768 5768 5761 5761 5763 5761 5759 5760 5760 5758 5761 5762 5761 5764 5766 5771 5773 5778 5781 5787 5791 5793 5797 5802 5813 5815 5816 5820 5827 5827 5833
5806 5802 5798 5793 5787 5783 5779 5774 5770 5768 5764 5761 5757 5755 5756 5759 5749 5748 5749 5749 5748 5749 5749 5751 5750 5749 5753 5754 5759 5761 5763 5765 5772 5777 5782 5783 5785 5795 5802 5806 5808 5811 5818 5820 5825
5798 5792 5787 5781 5776 5771 5767 5762 5756 5753 5750 5746 5743 5741 5741 5742 5736 5738 5735 5736 5735 5735 5738 5739 5740 5740 5741 5744 5747 5750 5751 5755 5764 5765 5772 5772 5782 5787 5791 5796 5800 5803 5808 5814 5817
5787 5781 5774 5768 5762 5757 5752 5747 5741 5738 5734 5730 5727 5726 5729 5728 5724 5722 5723 5725 5722 5722 5723 5725 5727 5730 5731 5732 5737 5739 5742 5746 5752 5758 5760 5765 5776 5779 5781 5785 5790 5793 5799 5804 5810
5775 5768 5760 5754 5747 5742 5737 5731 5725 5722 5718 5715 5712 5712 5712 5711 5709 5708 5707 5708 5709 5709 5709 5710 5712 5716 5720 5721 5724 5730 5737 5742 5746 5754 5753 5758 5763 5767 5771 5775 5779 5783 5789 5794 5800
5762 5755 5747 5740 5732 5725 5722 5714 5705 5703 5699 5697 5694 5695 5694 5691 5692 5692 5688 5690 5691 5694 5695 5698 5702 5705 5711 5717 5722 5726 5729 5735 5739 5745 5745 5748 5752 5757 5763 5767 5770 5776 5779 5785 5791
5750 5741 5733 5725 5714 5705 5699 5691 5682 5676 5679 5677 5676 5677 5676 5669 5668 5669 5670 5672 5676 5680 5684 5685 5689 5698 5704 5709 5712 5717 5721 5726 5731 5737 5741 5744 5746 5749 5752 5758 5762 5767 5771 5776 5780
5734 5725 5716 5707 5695 5686 5677 5667 5661 5649 5645 5662 5654 5653 5653 5644 5650 5646 5655 5656 5657 5663 5668 5674 5687 5691 5693 5699 5702 5707 5711 5718 5726 5730 5735 5740 5741 5743 5749 5753 5755 5759 5763 5766 5772
5717 5707 5697 5688 5678 5665 5653 5649 5638 5627 5619 5639 5632 5634 5631 5626 5631 5631 5632 5641 5644 5650 5657 5664 5671 5676 5681 5688 5694 5698 5706 5713 5719 5723 5727 5735 5735 5737 5746 5748 5750 5752 5756 5759 5762
5699 5687 5676 5660 5660 5646 5638 5624 5616 5610 5602 5622 5611 5611 5612 5614 5616 5619 5618 5620 5630 5638 5641 5654 5662 5666 5671 5681 5686 5693 5701 5709 5714 5716 5722 5725 5729 5735 5739 5739 5743 5746 5751 5752 5754
5682 5666 5653 5643 5635 5626 5615 5607 5600 5597 5592 5603 5600 5603 5603 5603 5606 5604 5608 5612 5620 5624 5629 5640 5648 5655 5666 5672 5679 5690 5696 5702 5708 5711 5712 5718 5722 5730 5732 5734 5737 5740 5743 5745 5746
5665 5647 5631 5619 5617 5603 5598 5591 5586 5579 5579 5588 5585 5585 5588 5585 5585 5594 5595 5601 5604 5613 5619 5629 5635 5647 5656 5664 5673 5681 5687 5693 5698 5701 5703 5712 5717 5722 5729 5732 5732 5734 5737 5738 5738
5645 5629 5615 5603 5595 5584 5579 5576 5571 5571 5567 5567 5573 5572 5574 5576 5575 5575 5585 5593 5597 5605 5613 5621 5628 5638 5648 5655 5665 5672 5679 5683 5687 5693 5702 5710 5711 5720 5726 5728 5730 5731 5732 5733 5736
5624 5612 5598 5589 5581 5572 5566 5563 5561 5560 5557 5554 5554 5559 5565 5568 5569 5573 5573 5584 5590 5599 5606 5614 5624 5635 5641 5650 5658 5667 5670 5683 5689 5695 5699 5704 5711 5714 5719 5723 5727 5725 5728 5729 5733
5605 5596 5585 5576 5564 5557 5554 5557 5554 5552 5549 5549 5549 5554 5555 5562 5561 5566 5569 5577 5584 5593 5602 5610 5621 5628 5638 5646 5652 5658 5671 5677 5681 5687 5690 5698 5703 5707 5711 5713 5717 5720 5719 5725 5727
5589 5581 5570 5565 5561 5556 5550 5551 5549 5549 5547 5547 5545 5546 5549 5555 5556 5562 5569 5573 5577 5585 5593 5602 5613 5619 5623 5634 5643 5651 5660 5669 5679 5682 5686 5694 5696 5701 5703 5705 5714 5717 5716 5719 5721
5579 5566 5557 5549 5547 5545 5543 5538 5543 5544 5544 5538 5544 5545 5548 5550 5553 5557 5562 5569 5571 5578 5586 5597 5603 5612 5622 5629 5638 5642 5654 5662 5669 5677 5681 5689 5691 5692 5695 5700 5703 5708 5712 5708 5703
5570 5557 5543 5538 5535 5536 5536 5537 5537 5538 5540 5539 5538 5535 5537 5542 5548 5552 5560 5565 5569 5573 5576 5593 5597 5607 5616 5627 5634 5640 5646 5655 5664 5671 5676 5681 5686 5688 5691 5696 5699 5705 5705 5704 5676
5556 5549 5540 5529 5527 5527 5530 5531 5532 5532 5533 5532 5533 5535 5538 5541 5545 5549 5556 5560 5565 5567 5574 5586 5593 5604 5613 5621 5629 5637 5644 5650 5658 5663 5673 5675 5679 5683 5686 5691 5695 5696 5697 5697 5692
5548 5538 5526 5525 5523 5522 5527 5526 5527 5529 5531 5531 5533 5533 5534 5538 5539 5544 5550 5557 5562 5565 5571 5582 5591 5600 5610 5622 5628 5634 5641 5646 5654 5661 5663 5671 5675 5677 5683 5687 5690 5691 5693 5691 5690
5545 5539 5530 5523 5520 5520 5521 5521 5524 5528 5529 5530 5530 5532 5531 5535 5535 5541 5547 5553 5558 5563 5570 5581 5590 5601 5609 5618 5624 5631 5637 5645 5649 5654 5659 5665 5671 5674 5676 5678 5683 5689 5691 5691 5689
5542 5535 5528 5525 5523 5521 5521 5521 5524 5526 5528 5529 5529 5527 5527 5532 5535 5542 5546 5549 5556 5562 5570 5580 5590 5598 5606 5613 5620 5629 5636 5638 5645 5651 5658 5662 5665 5670 5671 5672 5670 5676 5682 5683 5685